Reflectivity
-20 -20 -18 -17 -19 -20 -20 -20 -20 -20 -20 -20 -20 -20 -20 -20 -20 -20 -20 -20 -20 -20 -20 -20 -20 -20 -20 -11 -19 -20 -20 -20 -20 -20 -20 -20 -20 -20 -20 -20 -20 -20 -20 -20 -20
-11 -20 -20 -20 -20 -20 -20 -20 -20 -20 -20 -20 -20 -20 -20 -20 -20 -20 -20 -20 -20 -20 -20 -20 -20 -20 -10 -10 -20 -20 -20 -20 -20 -20 -20 -20 -20 -20 -20 -20 -20 -20 -20 -20 -20
-20 -20 -20 -20 -20 -20 -20 -20 -20 -20 -20 -20 -20 -20 -20 -20 -20 -20 -20 -20 -20 -20 -20 -20 -20 -20 -20 -20 -7 -20 -20 -20 -20 -20 -20 -20 -20 -20 -20 -20 -20 -20 -20 -20 -20
-20 -20 -20 -20 -20 -20 -20 -20 -20 -20 -20 -20 -20 -20 -20 -20 -20 -20 -20 -20 -20 -20 -20 -20 -20 -20 -20 -20 -19 -20 -20 -20 -20 -20 -20 -20 -20 -20 -20 -20 -20 -20 -20 -20 -20
-20 -20 -20 -20 -20 -20 -20 -20 -20 -20 -20 -20 -20 -20 -20 -20 -20 -20 -20 -20 -20 -20 -20 -20 -20 -20 -20 -20 -20 -20 -20 -20 -20 -20 -20 -20 -20 -20 -20 -20 -20 -20 -20 -20 -20
-20 -20 -20 -20 -20 -20 -20 -20 -20 -20 -20 -20 -20 -20 -20 -20 -20 -20 -20 -20 -20 -20 -20 -20 -20 -20 -20 -20 -20 -20 -20 -20 -20 -20 -20 -20 -20 -20 -20 -20 -20 -20 -20 -20 -20
-20 -20 -20 -20 -20 -20 -20 -20 -20 -20 -20 -20 -20 -20 -20 -20 -20 -20 -20 -20 -20 -20 -20 -20 -20 -20 -20 -20 -20 -20 -20 -20 -20 -20 -20 -20 -20 -20 -20 -20 -20 -20 -20 -20 -20
-20 -20 -20 -20 -18 -20 -20 -20 -20 -20 -20 -20 -20 -20 -20 -20 -20 -20 -20 -20 -20 -20 -20 -20 -20 -20 -20 -20 -20 -20 -20 -20 -20 -20 -20 -20 -20 -20 -20 -20 -20 -20 -20 -20 -20
-20 -20 -20 -20 -20 -20 -20 -20 -20 -20 -20 -20 -20 -20 -20 -20 -20 -20 -20 -20 -20 -20 -20 -20 -20 -20 -20 -20 -20 -20 -20 -20 -20 -20 -20 -20 -20 -20 -20 -20 -20 -20 -20 -20 -20
-20 -20 -20 -20 -20 -20 -20 -20 -20 -20 -20 -20 -20 -20 -20 -20 -20 -20 -20 -20 -20 -20 -20 -20 -20 -20 -20 -20 -20 -20 -20 -20 -20 -20 -20 -20 -20 -20 -20 -20 -20 -20 -20 -20 -20
-20 -20 -20 -20 -20 -20 -20 -20 -20 -20 -20 -20 -20 -20 -20 -20 -20 -20 -20 -20 -20 -20 -20 -20 -20 -20 -20 -20 -20 -20 -20 -20 -20 -20 -20 -20 -20 -20 -20 -20 -20 -20 -20 -20 -20
-20 -20 -20 -20 -20 -20 -20 -14 -20 0 -14 -10 -20 -20 -20 -20 -20 -20 -20 -20 -20 -20 -20 -20 -20 -20 -20 -20 -20 -20 -20 -20 -20 -20 -20 -20 -20 -20 -20 -20 -20 -20 -20 -20 -20
-20 -20 -20 -20 -20 -20 -20 -20 -20 -13 -5 -18 -20 -20 -20 -20 -20 -20 -20 -20 -20 -20 -20 -20 -20 -20 -20 -20 -20 -20 -20 -20 -20 -20 -20 -20 -20 -20 -20 -20 -20 -20 -20 -20 -20
11 -20 -20 -20 -20 -20 -20 -20 -20 -20 9 -20 -18 -20 -20 -20 -20 -20 -20 -20 -20 -20 -20 -20 -20 -20 -20 -20 -20 -20 -20 -20 -20 -20 -20 -20 -20 -20 -20 -20 -20 -20 -20 -20 -20
16 -20 -20 -20 -20 -20 -20 -20 -20 -20 -19 2 -20 -20 -20 -20 -20 -20 -20 -20 -20 -20 -20 -20 -20 -20 -20 -20 -20 -20 -20 -20 -20 -20 -20 -20 -20 -20 -20 -20 -20 -20 -20 -20 -20
18 -11 -20 -20 -20 -20 -20 -20 -20 -20 -6 -6 2 -8 -20 -20 -20 -20 -20 -20 -20 -20 -20 -20 -20 -20 -20 -20 -20 -20 -20 -20 -20 -20 -20 -20 -20 -20 -20 -20 -20 -20 -20 -20 -20
25 15 -20 -20 -20 -20 -20 -20 -20 -20 -20 9 9 12 -8 -20 -20 -20 -20 -20 -20 -20 -20 -20 -20 -20 -20 -20 -20 -20 -20 -20 -20 -20 -20 -20 -20 -20 -20 -20 -20 -20 -20 -20 -20
26 23 8 -20 -20 -20 -20 -20 -20 -20 -20 -20 2 7 9 -17 -20 -20 -20 -20 -20 -20 -20 -20 -20 -20 -20 -20 -20 -20 -20 -20 -20 -20 -20 -20 -20 -20 -20 -20 -20 -20 -20 -20 -20
27 28 -3 -20 -20 -20 -20 -20 -20 -20 -20 -20 -20 7 3 7 -1 -16 -20 -20 -20 -20 -20 -20 -20 -20 -20 -20 -20 -20 -20 -20 -20 -20 -20 -20 -20 -20 -20 -20 -20 -20 -20 -20 -20
34 25 28 -18 -20 -20 -20 -20 -20 -20 -20 -20 -20 -2 12 9 6 -13 -20 -20 -20 -20 -20 -20 -20 -20 -20 -20 -20 -20 -20 -20 -20 -20 -20 -20 -20 -20 -20 -20 -20 -20 -20 -20 -20
33 36 34 -0 -5 -20 -20 -20 -20 -20 -20 -20 -20 -17 9 -10 3 4 -17 -16 -20 -16 -20 -20 -20 -20 -20 -20 -20 -20 -20 -20 -20 -20 -20 -20 -20 -20 -20 -20 -20 -20 -20 -20 -20
24 38 12 29 -9 -20 -20 -20 -20 -20 -20 -20 -20 -20 -14 8 -19 14 -4 -20 -4 8 -16 -20 -20 -20 -20 -20 -20 -20 -20 -20 -20 -20 -20 -20 -20 -20 -20 -20 -20 -20 -12 -20 -20
19 40 37 29 -10 -19 -20 -20 -20 -20 -20 -20 -20 -20 -20 -12 -5 -13 10 -20 -20 -13 1 -15 -20 -13 -20 -20 -20 -20 -20 -20 -20 -20 -20 -20 -20 -20 -20 -20 -20 -20 -20 -20 -20
22 43 23 30 12 -9 -20 -20 -20 -20 -20 -20 -20 -20 -20 -20 -11 -0 2 -14 1 -20 -20 -17 -17 -20 -19 -4 -20 -20 -20 -20 -20 -20 -20 -19 -20 -20 -20 -20 -20 -20 -17 -14 -20
17 42 2 22 12 -2 -20 -20 -20 -20 -20 -20 -20 -20 -20 -20 -20 -18 -20 -20 -20 -20 -20 -20 -20 -20 -20 -20 -20 -20 -20 -20 -20 -20 -20 -18 -20 -20 -20 -20 -20 -14 -17 -20 -20
-1 25 -0 3 14 -4 -6 -20 -20 -20 -20 -20 -20 -20 -20 -20 -20 -20 -20 -4 -15 -20 -20 -20 -20 -20 -20 -20 -20 -20 -20 -20 -20 -20 -20 -20 -20 -16 -20 -20 -20 -20 -20 -20 -20
10 29 -8 14 4 12 -20 -20 -20 -20 -20 -20 -20 -20 -20 -20 -20 -20 -20 -20 -20 -20 -20 -20 -20 -20 -20 -20 -20 -20 -20 -15 -20 -20 -20 -20 -20 -20 -20 -20 -20 -20 -20 -20 -20
Wind_Speed
12 14 14 14 14 15 17 17 18 19 17 19 22 19 15 18 19 5 5 7 6 11 8 10 8 7 8 4 3 6 7 9 9 14 10 8 5 5 5 9 5 5 3 4 2
11 14 15 16 15 15 15 17 17 19 19 18 21 20 15 14 3 7 8 7 8 5 8 8 10 12 4 1 6 8 8 8 9 11 14 13 8 9 5 6 7 5 3 4 4
11 12 14 16 16 17 16 16 17 17 19 19 19 22 18 9 3 5 12 12 2 8 5 7 15 3 8 5 5 3 5 16 15 15 16 15 10 5 15 4 4 8 6 6 5
10 11 12 15 17 17 18 16 16 18 18 18 19 21 23 1 2 7 12 13 13 4 5 8 13 16 12 9 5 20 14 10 12 13 13 10 8 8 5 6 11 12 11 6 6
9 10 11 14 16 18 19 18 17 17 19 17 18 21 8 6 3 12 13 12 9 6 6 3 14 11 11 15 19 20 17 15 16 15 13 14 9 11 10 9 11 10 8 9 9
9 10 10 12 14 17 19 19 19 18 18 18 15 21 1 4 6 11 11 10 7 6 12 10 17 22 15 8 8 10 16 15 11 14 14 19 14 6 7 10 10 10 9 8 10
9 9 10 12 14 17 19 20 20 18 19 17 12 7 6 3 10 17 11 6 5 6 10 7 12 9 12 18 14 12 16 13 13 11 10 15 8 6 8 7 9 9 9 9 9
8 9 10 11 13 17 19 21 21 19 17 14 12 2 1 6 9 14 11 11 11 10 10 11 14 10 8 16 12 14 7 6 7 7 8 6 6 7 8 8 8 9 8 8 8
7 8 9 11 13 17 20 23 21 16 12 12 5 1 2 10 9 10 9 6 9 10 6 7 7 5 8 12 6 4 5 9 5 8 4 5 5 6 7 9 8 8 8 9 7
8 7 10 11 12 16 22 18 16 11 5 2 4 5 5 3 4 8 9 3 3 2 3 5 6 5 2 4 6 7 8 6 7 5 4 5 4 7 8 9 9 9 8 9 9
7 7 9 12 13 13 12 7 6 6 6 3 4 2 4 2 3 5 5 8 6 2 4 3 7 3 11 10 7 5 12 9 6 6 4 3 11 11 10 8 10 9 9 9 9
7 7 9 11 13 13 2 5 4 1 3 4 2 4 5 2 1 4 11 5 4 3 3 5 3 4 5 6 4 5 11 7 3 7 6 9 9 11 10 7 10 10 10 10 8
9 7 7 10 13 5 2 5 5 7 2 2 2 2 2 4 4 6 8 5 2 4 6 7 4 7 6 5 8 6 8 6 7 5 4 2 1 9 8 7 8 9 12 11 15
9 7 5 10 5 5 1 4 5 2 4 4 3 2 2 3 2 3 5 2 2 5 6 5 5 6 5 4 6 5 4 4 10 6 4 9 6 9 14 15 9 11 10 14 14
9 6 3 2 5 3 1 3 6 4 3 6 4 1 2 3 6 2 4 6 3 4 6 2 6 6 7 5 6 1 6 4 4 8 3 4 2 8 16 13 15 11 11 12 14
10 8 2 1 2 8 5 6 4 9 4 2 5 4 5 1 3 3 3 3 3 7 9 3 1 4 2 3 6 4 3 4 5 3 3 9 9 3 15 21 16 10 11 12 11
10 9 5 3 3 2 4 4 8 5 3 2 4 7 6 4 4 3 1 1 4 5 1 3 2 3 1 3 4 3 5 3 4 4 7 7 6 9 16 15 21 21 19 16 15
10 7 7 5 4 6 3 6 5 6 3 4 3 9 4 5 3 6 6 3 5 1 4 5 4 0 3 3 2 4 6 6 4 1 4 1 4 6 7 9 12 18 18 15 14
12 0 5 5 6 1 6 4 10 6 7 7 6 7 2 3 2 3 3 6 7 5 7 6 1 1 6 4 3 2 0 2 3 4 1 5 3 8 5 5 5 10 16 16 14
3 3 5 6 4 3 5 7 5 2 6 6 3 3 7 5 2 4 4 4 4 3 7 3 5 1 2 2 2 2 2 4 5 0 4 7 4 5 7 5 4 4 9 12 14
2 3 5 10 4 3 6 8 5 7 8 6 5 3 6 7 4 4 4 2 4 3 7 4 7 2 3 4 7 2 0 2 4 6 5 2 6 5 8 8 9 6 8 9 14
2 1 2 7 4 4 5 7 4 9 4 3 2 2 7 10 6 2 3 4 4 6 5 2 6 4 5 2 4 1 5 6 7 5 4 4 8 3 6 5 8 7 7 9 12
4 4 2 2 6 3 3 7 4 7 6 6 5 1 1 3 7 6 5 3 6 3 4 2 0 4 4 5 4 3 2 5 4 3 7 5 7 1 6 5 6 8 8 11 12
3 4 3 2 3 6 8 10 7 7 8 6 5 4 3 3 1 7 5 2 5 4 1 3 2 7 8 5 5 1 3 1 5 3 3 8 3 5 4 6 5 6 8 10 13
3 7 4 8 8 6 9 11 14 7 6 8 4 4 5 3 2 2 5 4 0 3 2 4 3 1 4 3 4 6 5 8 8 11 7 7 7 5 3 8 8 8 10 15 14
5 3 1 5 15 15 10 12 21 12 10 9 8 8 8 6 8 10 7 4 5 3 4 2 3 1 3 6 10 7 8 10 12 11 11 18 20 13 9 6 7 10 11 13 14
1 4 3 10 13 10 8 19 14 11 7 8 9 8 8 7 2 2 6 7 8 8 6 6 5 3 4 3 4 6 10 14 10 7 7 8 10 4 3 7 7 8 11 13 13
Wind_Direction
340 342 346 347 348 345 344 340 335 329 329 324 320 329 338 322 323 358 9 276 289 329 332 287 298 274 134 286 51 120 102 129 159 150 166 155 132 33 75 95 57 48 79 171 304
339 342 344 344 343 338 342 338 334 330 325 326 323 322 328 318 318 24 272 248 260 334 352 345 313 302 51 71 33 69 93 138 138 129 159 159 137 152 112 86 93 92 119 130 90
334 341 341 342 339 333 334 335 332 328 322 322 325 318 319 320 336 328 312 320 111 159 217 247 266 234 43 86 356 73 109 116 117 140 141 139 132 132 124 72 126 150 147 153 138
325 333 340 340 334 332 328 329 330 325 319 322 323 318 314 105 51 291 300 312 309 282 280 320 76 76 64 68 56 106 123 121 134 141 131 118 110 81 89 122 146 151 166 147 162
320 327 334 338 333 328 326 325 325 321 317 321 324 322 349 53 313 284 300 305 299 311 272 238 85 75 81 95 87 110 127 124 135 104 110 102 92 109 111 148 160 166 154 122 90
315 322 333 333 330 325 324 321 317 317 314 316 326 318 340 66 269 316 292 303 279 324 41 80 98 108 111 99 76 107 96 100 100 102 112 118 139 100 150 158 146 119 113 109 112
306 321 332 329 326 322 322 318 310 312 307 310 327 322 47 270 309 318 300 347 351 66 60 27 107 86 107 91 99 96 100 91 110 138 144 129 57 115 151 135 132 125 117 108 109
294 317 327 323 323 321 318 312 306 301 301 302 324 296 3 286 315 360 340 16 36 58 73 72 105 110 95 116 111 122 123 122 209 150 200 81 149 159 160 136 125 124 124 130 122
282 305 321 322 326 321 316 308 295 291 280 292 330 3 350 321 1 329 6 27 32 30 35 75 56 80 101 126 103 244 149 119 146 193 144 76 140 179 162 135 145 140 138 132 119
272 304 318 319 325 323 321 293 285 327 292 205 267 40 4 18 329 327 329 294 88 83 23 74 81 119 70 137 175 188 122 141 155 231 169 190 140 157 183 150 164 168 165 150 145
266 293 310 317 322 330 350 348 10 359 26 65 5 106 91 326 320 360 328 354 14 1 105 171 101 183 200 231 264 186 140 149 154 183 191 173 149 177 190 163 176 189 171 171 153
258 276 304 317 317 323 348 339 55 209 324 117 7 17 34 341 33 5 4 3 26 297 133 35 102 345 313 301 318 142 122 120 131 178 159 149 170 182 183 190 182 184 182 166 153
246 260 298 322 318 324 216 322 32 23 161 22 21 194 62 28 30 358 13 352 318 279 78 111 330 316 294 331 353 55 137 167 151 180 274 95 156 184 210 188 194 183 184 161 160
230 251 305 319 331 302 277 350 9 21 81 163 221 90 241 146 83 285 335 316 28 52 76 74 323 342 297 42 360 71 68 120 120 110 217 148 252 205 184 198 198 197 180 168 172
214 227 271 58 299 309 350 353 331 57 82 201 92 297 253 126 151 34 311 324 37 72 73 278 15 15 18 356 34 1 17 2 156 187 344 245 67 247 164 201 207 197 184 179 176
205 200 220 207 209 250 352 336 27 44 243 128 120 158 112 324 109 132 348 16 35 66 50 60 11 60 333 19 44 14 355 348 14 46 342 229 168 261 177 199 191 189 184 172 167
198 200 184 336 215 15 29 39 47 129 265 167 179 137 157 161 135 159 170 325 125 90 59 120 32 329 59 80 25 16 50 347 356 8 225 312 125 239 203 182 192 189 185 174 164
181 179 245 232 326 323 58 65 104 226 123 165 129 130 179 148 190 189 168 217 271 297 120 141 300 301 12 93 108 247 153 152 217 261 294 72 246 250 136 132 187 189 177 168 157
115 48 272 247 228 230 81 77 200 211 141 163 127 111 234 108 67 84 201 217 203 187 156 161 131 118 59 15 49 306 296 222 74 6 33 253 336 357 84 83 77 147 158 166 157
143 92 254 183 171 92 90 215 214 136 133 145 143 178 150 141 95 183 216 229 195 117 114 54 106 233 76 39 92 104 258 56 8 137 262 289 257 245 174 169 151 124 158 152 148
72 113 253 157 109 73 157 220 203 138 136 164 166 144 142 147 175 195 236 315 106 81 73 94 107 237 61 206 182 116 98 93 126 149 182 262 274 306 191 172 174 190 138 149 152
91 119 119 170 126 164 175 196 234 150 166 99 57 99 177 151 161 285 184 29 20 121 118 89 124 167 202 160 59 79 198 147 127 256 232 160 271 33 73 94 145 148 128 137 139
147 239 249 5 163 179 189 229 262 141 162 155 185 141 25 154 128 185 109 319 13 89 123 143 226 77 342 352 13 214 186 102 122 92 226 137 258 85 58 63 75 124 108 117 118
123 244 114 121 262 168 187 198 221 180 160 165 150 119 107 166 349 173 138 90 4 66 225 117 152 161 190 197 148 228 220 116 131 153 203 228 293 292 241 177 111 103 114 102 106
140 250 179 159 217 216 195 176 212 208 170 170 146 148 146 148 104 165 103 127 24 152 62 95 162 178 213 225 191 189 202 175 196 225 187 261 228 217 6 186 160 132 116 112 112
151 195 220 152 189 187 201 221 198 208 162 197 135 180 201 168 186 199 136 152 174 146 139 125 256 301 297 241 238 231 226 206 216 245 250 261 271 276 293 156 136 138 130 119 121
204 287 180 155 176 181 214 198 197 202 203 181 164 157 186 219 110 177 148 171 134 135 174 149 128 83 258 28 32 336 227 224 216 195 196 209 241 294 244 148 144 138 117 117 112